RH
75 77 81 78 78 80 84 76 65 51 38 31 32 36 40 58 77 82 82 79 74 70 71 70 65 63 54 54 53 54 51 48 48 47 44 40 33 30 28 26 25 21 18 16
77 80 75 79 78 77 82 81 71 56 41 35 33 36 41 51 64 78 82 83 79 77 68 66 62 58 51 53 53 54 52 47 46 42 43 40 34 29 29 28 26 22 19 17
73 72 74 74 79 78 74 79 77 64 52 43 39 36 41 42 58 67 77 80 81 79 69 62 57 53 50 48 47 53 51 47 42 42 45 42 34 30 29 27 26 22 19 17
76 73 76 71 73 76 76 71 77 72 61 59 41 36 30 38 47 59 70 76 75 76 74 71 58 54 49 46 45 47 48 45 43 45 46 42 34 29 26 26 25 21 19 18
78 79 78 79 70 67 68 68 76 74 67 64 54 53 32 36 44 49 56 69 76 72 67 70 67 60 54 48 44 43 43 43 44 45 41 36 31 26 25 25 22 20 18 18
74 80 79 76 74 71 68 67 72 72 75 73 61 59 43 32 26 38 53 61 65 65 64 61 59 63 66 49 42 41 44 42 38 35 31 28 27 27 26 24 21 18 17 16
65 72 78 81 74 72 72 71 86 87 80 66 64 65 36 29 26 31 41 52 55 59 59 56 58 58 52 43 36 40 41 36 32 28 26 26 26 25 25 24 21 18 16 15
59 67 67 79 77 74 75 78 83 81 71 60 64 48 39 34 31 29 38 46 52 52 50 53 60 58 54 38 37 41 38 35 32 27 27 27 25 24 25 23 20 17 16 16
41 46 56 71 80 74 76 76 68 66 63 63 49 40 31 35 34 32 28 38 40 41 45 48 51 49 55 38 36 38 38 36 34 30 27 26 25 23 22 21 18 17 17 17
35 44 46 64 76 79 76 72 73 74 72 65 49 46 46 36 32 34 32 27 31 36 39 41 43 44 44 36 39 39 40 40 37 32 27 26 24 22 20 18 17 18 18 18
35 36 44 49 63 73 75 77 70 64 58 58 53 45 38 38 35 36 34 33 29 26 25 26 29 34 38 39 40 41 42 41 36 32 27 26 24 21 18 18 18 18 18 18
35 38 41 42 41 58 66 65 68 72 70 61 60 50 36 34 32 30 31 28 26 24 23 22 22 28 35 38 42 42 42 40 35 30 27 25 22 19 19 19 19 19 19 18
38 40 44 37 38 45 52 63 64 64 65 62 66 50 35 32 27 26 25 24 22 20 20 20 21 25 32 37 41 43 39 36 30 29 26 24 21 20 20 20 20 20 20 19
41 40 38 37 33 34 43 44 58 60 61 55 54 45 38 35 30 26 23 22 21 20 20 19 20 22 29 36 38 36 33 29 28 27 25 22 20 20 21 21 22 22 22 21
44 44 40 37 36 36 32 34 41 48 47 46 38 34 27 27 26 24 22 21 20 19 18 19 21 23 26 29 30 30 29 27 26 24 22 21 21 22 23 24 25 24 23 24
45 41 42 41 36 36 38 34 32 33 33 32 31 28 27 26 25 23 21 20 19 18 18 18 19 21 24 26 28 29 28 27 25 23 22 22 23 25 27 27 26 26 26 25
47 45 43 38 36 37 33 28 30 29 29 27 27 22 21 20 20 19 19 19 18 17 18 19 19 21 22 24 26 26 27 27 25 23 23 25 26 28 29 29 29 29 28 26
45 45 42 38 39 35 30 31 31 30 26 27 26 23 23 23 21 19 16 16 16 16 17 18 19 21 22 25 26 28 28 27 26 26 26 28 30 31 31 31 32 30 27 26
44 42 43 43 39 34 30 35 37 36 32 31 30 27 26 24 24 22 22 20 19 17 16 17 19 21 24 27 29 31 31 30 29 29 30 32 34 35 35 33 31 30 29 29
52 49 45 50 48 41 34 36 39 38 37 37 36 34 33 32 28 27 27 27 27 25 24 22 18 19 23 27 31 33 33 32 31 31 34 36 36 35 33 33 33 37 43 48
59 57 53 49 49 44 37 38 39 39 38 37 38 39 39 38 37 36 36 35 33 32 32 31 31 31 32 34 36 36 37 37 40 43 44 47 49 49 50 50 50 50 51 52
56 57 58 56 60 59 43 44 42 39 40 41 40 40 40 39 40 40 39 39 39 40 41 41 41 40 41 40 43 46 47 51 52 52 54 56 56 54 54 54 55 57 58 60
59 50 55 52 52 49 48 47 46 44 45 45 45 45 45 44 43 43 42 42 42 42 42 42 44 46 49 51 53 55 58 60 62 63 66 66 64 63 63 64 65 65 66 67
69 66 63 62 55 56 57 56 55 55 54 53 52 51 51 51 51 49 49 49 49 49 50 50 51 51 51 54 58 62 65 68 69 73 73 73 71 70 70 70 70 70 70 76
71 73 72 69 65 64 64 67 66 65 66 65 64 61 59 56 55 54 53 53 53 52 52 53 52 54 56 59 63 65 68 70 75 78 77 76 75 74 74 74 74 75 83 90
78 77 77 76 78 81 80 79 78 76 75 73 71 69 67 63 60 59 56 56 55 56 55 54 55 58 59 61 65 68 72 75 76 76 76 75 77 77 76 75 82 89 97 88